Time,TemperatureF,DewpointF,PressureIn,WindDirection,WindDirectionDegrees,WindSpeedMPH,WindSpeedGustMPH,Humidity,HourlyPrecipIn,Conditions,Clouds,dailyrainin,SolarRadiationWatts/m^2,SoftwareType,DateUTC
2013-03-18 00:00:00,51.1,46.4,29.72,SSE,156,16.0,35.0,84,0.01,-RA,,0.00,0.0,WeatherDisplay:10.37,2013-03-17 23:00:00,
2013-03-18 00:05:00,51.1,46.4,29.72,SSE,155,12.0,28.0,84,0.00,-RA,,0.00,0.0,WeatherDisplay:10.37,2013-03-17 23:05:00,
2013-03-18 00:10:00,51.1,46.7,29.72,SSE,156,15.0,31.0,85,0.00,-RA,,0.00,0.0,WeatherDisplay:10.37,2013-03-17 23:10:00,
2013-03-18 00:15:00,51.3,46.6,29.72,SE,139,17.0,27.0,84,0.00,-RA,,0.00,0.0,WeatherDisplay:10.37,2013-03-17 23:15:00,
2013-03-18 00:20:00,51.1,46.4,29.72,SSE,154,17.0,30.0,84,0.00,-RA,,0.00,0.0,WeatherDisplay:10.37,2013-03-17 23:20:00,
2013-03-18 00:25:00,50.9,46.9,29.72,SSE,165,15.0,27.0,86,0.00,-RA,,0.00,0.0,WeatherDisplay:10.37,2013-03-17 23:25:00,
2013-03-18 00:30:00,50.8,46.8,29.71,SSE,155,15.0,28.0,86,0.00,-RA,,0.00,0.0,WeatherDisplay:10.37,2013-03-17 23:30:00,
2013-03-18 00:35:00,51.1,47.0,29.70,SSE,150,16.0,29.0,86,0.00,-RA,,0.00,0.0,WeatherDisplay:10.37,2013-03-17 23:35:00,
2013-03-18 00:40:00,51.4,47.4,29.71,SE,140,14.0,30.0,86,0.00,-RA,,0.00,0.0,WeatherDisplay:10.37,2013-03-17 23:40:00,
2013-03-18 00:45:00,51.6,47.3,29.73,SE,131,17.0,29.0,85,0.00,-RA,,0.00,0.0,WeatherDisplay:10.37,2013-03-17 23:45:00,
2013-03-18 00:50:00,51.6,47.2,29.73,SSE,147,14.0,27.0,85,0.00,-RA,,0.00,0.0,WeatherDisplay:10.37,2013-03-17 23:50:00,
2013-03-18 00:55:00,51.2,47.2,29.73,SSE,160,15.0,23.0,86,0.00,-RA,,0.00,0.0,WeatherDisplay:10.37,2013-03-17 23:55:00,
2013-03-18 01:00:00,51.1,47.0,29.72,SSE,154,10.0,25.0,86,0.00,-RA,,0.00,0.0,WeatherDisplay:10.37,2013-03-18 00:00:00,
2013-03-18 01:10:00,50.9,47.2,29.73,SSE,148,10.0,22.0,87,0.01,-RA,,0.01,0.0,WeatherDisplay:10.37,2013-03-18 00:10:00,
2013-03-18 01:20:00,50.9,47.5,29.73,SSE,151,13.0,22.0,88,0.00,-RA,,0.01,0.0,WeatherDisplay:10.37,2013-03-18 00:20:00,
2013-03-18 01:25:00,50.9,47.5,29.72,SSE,156,12.0,24.0,88,0.00,-RA,,0.01,0.0,WeatherDisplay:10.37,2013-03-18 00:25:00,
2013-03-18 01:30:00,50.9,47.5,29.72,SE,145,10.0,25.0,88,0.00,-RA,,0.01,0.0,WeatherDisplay:10.37,2013-03-18 00:30:00,
2013-03-18 01:35:00,50.8,47.7,29.72,SE,146,12.0,24.0,89,0.00,-RA,,0.01,0.0,WeatherDisplay:10.37,2013-03-18 00:35:00,
2013-03-18 01:40:00,50.6,47.5,29.72,SSE,148,9.0,25.0,89,0.01,-RA,,0.02,0.0,WeatherDisplay:10.37,2013-03-18 00:40:00,
2013-03-18 01:45:00,50.5,47.6,29.71,SSE,157,12.0,27.0,90,0.01,RA,,0.02,0.0,WeatherDisplay:10.37,2013-03-18 00:45:00,
2013-03-18 01:50:00,50.4,47.6,29.70,SE,140,14.0,26.0,90,0.00,RA,,0.02,0.0,WeatherDisplay:10.37,2013-03-18 00:50:00,
2013-03-18 01:55:00,50.6,48.0,29.70,ESE,123,14.0,32.0,91,0.00,SCT,,0.02,0.0,WeatherDisplay:10.37,2013-03-18 00:55:00,
2013-03-18 02:00:00,50.6,48.0,29.70,SE,133,13.0,23.0,91,0.00,SCT,,0.02,0.0,WeatherDisplay:10.37,2013-03-18 01:00:00,
2013-03-18 02:10:00,51.0,48.2,29.68,SE,144,12.0,25.0,90,0.00,SCT,,0.02,0.0,WeatherDisplay:10.37,2013-03-18 01:10:00,
2013-03-18 02:15:00,51.2,48.4,29.67,SSE,148,15.0,29.0,90,0.00,-RA,,0.02,0.0,WeatherDisplay:10.37,2013-03-18 01:15:00,
2013-03-18 02:20:00,51.4,48.3,29.67,SSE,154,12.0,25.0,89,0.00,-RA,,0.02,0.0,WeatherDisplay:10.37,2013-03-18 01:20:00,
2013-03-18 02:25:00,51.5,48.4,29.66,SSE,157,8.0,26.0,89,0.00,-RA,,0.02,0.0,WeatherDisplay:10.37,2013-03-18 01:25:00,
2013-03-18 02:30:00,51.7,48.5,29.65,SSE,150,14.0,30.0,89,0.00,-RA,,0.02,0.0,WeatherDisplay:10.37,2013-03-18 01:30:00,
2013-03-18 02:35:00,51.8,48.7,29.64,SE,146,14.0,30.0,89,0.00,-RA,,0.02,0.0,WeatherDisplay:10.37,2013-03-18 01:35:00,
2013-03-18 02:40:00,52.1,48.6,29.64,SE,142,17.0,31.0,88,0.00,-RA,,0.02,0.0,WeatherDisplay:10.37,2013-03-18 01:40:00,
2013-03-18 02:45:00,52.1,48.7,29.63,SE,139,15.0,27.0,88,0.00,SCT,,0.02,0.0,WeatherDisplay:10.37,2013-03-18 01:45:00,
2013-03-18 02:50:00,52.4,48.9,29.63,SE,141,16.0,28.0,88,0.01,RA,,0.03,0.0,WeatherDisplay:10.37,2013-03-18 01:50:00,
2013-03-18 02:55:00,52.5,48.7,29.64,SSE,147,17.0,28.0,87,0.00,RA,,0.03,0.0,WeatherDisplay:10.37,2013-03-18 01:55:00,
2013-03-18 03:00:00,52.6,48.9,29.64,SSE,149,16.0,28.0,87,0.00,SCT,,0.03,0.0,WeatherDisplay:10.37,2013-03-18 02:00:00,
2013-03-18 03:05:00,52.8,49.0,29.63,SSE,160,14.0,29.0,87,0.00,,,0.03,0.0,WeatherDisplay:10.37,2013-03-18 02:05:00,
2013-03-18 03:10:00,52.9,48.9,29.63,SSE,163,16.0,30.0,86,0.00,,,0.03,0.0,WeatherDisplay:10.37,2013-03-18 02:10:00,
2013-03-18 03:15:00,53.0,48.9,29.62,SSE,155,14.0,26.0,86,0.00,,,0.03,0.0,WeatherDisplay:10.37,2013-03-18 02:15:00,
2013-03-18 03:20:00,53.2,49.1,29.62,SSE,155,15.0,26.0,86,0.00,,,0.03,0.0,WeatherDisplay:10.37,2013-03-18 02:20:00,
2013-03-18 03:25:00,53.4,49.0,29.62,SSE,150,14.0,28.0,85,0.00,,,0.03,0.0,WeatherDisplay:10.37,2013-03-18 02:25:00,
2013-03-18 03:30:00,53.4,49.0,29.62,SE,144,16.0,29.0,85,0.00,,,0.03,0.0,WeatherDisplay:10.37,2013-03-18 02:30:00,
2013-03-18 03:35:00,53.5,49.1,29.62,SSE,153,17.0,33.0,85,0.00,,,0.03,0.0,WeatherDisplay:10.37,2013-03-18 02:35:00,
2013-03-18 03:40:00,53.5,49.1,29.62,SSE,158,14.0,33.0,85,0.00,,,0.03,0.0,WeatherDisplay:10.37,2013-03-18 02:40:00,
2013-03-18 03:45:00,53.5,49.1,29.62,SSE,153,13.0,33.0,85,0.00,,,0.03,0.0,WeatherDisplay:10.37,2013-03-18 02:45:00,
2013-03-18 03:50:00,53.4,49.0,29.62,SSE,159,18.0,33.0,85,0.00,,,0.03,0.0,WeatherDisplay:10.37,2013-03-18 02:50:00,
2013-03-18 03:55:00,53.4,49.0,29.63,South,173,14.0,29.0,85,0.00,,,0.03,0.0,WeatherDisplay:10.37,2013-03-18 02:55:00,
2013-03-18 04:05:00,53.6,49.2,29.61,SSE,164,15.0,29.0,85,0.00,,,0.03,0.0,WeatherDisplay:10.37,2013-03-18 03:05:00,
2013-03-18 04:10:00,53.8,49.4,29.61,SSE,155,16.0,30.0,85,0.00,,,0.03,0.0,WeatherDisplay:10.37,2013-03-18 03:10:00,
2013-03-18 04:15:00,53.8,49.0,29.61,SSE,157,14.0,28.0,84,0.00,,,0.03,0.0,WeatherDisplay:10.37,2013-03-18 03:15:00,
2013-03-18 04:20:00,54.0,49.3,29.61,SSE,150,16.0,32.0,84,0.00,,,0.03,0.0,WeatherDisplay:10.37,2013-03-18 03:20:00,
2013-03-18 04:25:00,54.0,48.9,29.61,SSE,164,17.0,32.0,83,0.00,,,0.03,0.0,WeatherDisplay:10.37,2013-03-18 03:25:00,
2013-03-18 04:30:00,53.7,49.0,29.61,South,181,13.0,26.0,84,0.00,,,0.03,0.0,WeatherDisplay:10.37,2013-03-18 03:30:00,
2013-03-18 04:35:00,53.8,49.1,29.60,SSE,165,17.0,35.0,84,0.00,,,0.03,0.0,WeatherDisplay:10.37,2013-03-18 03:35:00,
2013-03-18 04:40:00,54.2,48.9,29.61,SSE,153,18.0,40.0,82,0.00,,,0.03,0.0,WeatherDisplay:10.37,2013-03-18 03:40:00,
2013-03-18 04:45:00,54.2,48.9,29.60,SSE,152,20.0,33.0,82,0.00,,,0.03,0.0,WeatherDisplay:10.37,2013-03-18 03:45:00,
2013-03-18 04:50:00,54.1,48.7,29.60,SSE,158,15.0,29.0,82,0.00,,,0.03,0.0,WeatherDisplay:10.37,2013-03-18 03:50:00,
2013-03-18 04:55:00,54.5,48.8,29.60,SE,143,16.0,30.0,81,0.00,,,0.03,0.0,WeatherDisplay:10.37,2013-03-18 03:55:00,
2013-03-18 05:00:00,54.8,49.1,29.59,SSE,155,23.0,35.0,81,0.00,,,0.03,0.0,WeatherDisplay:10.37,2013-03-18 04:00:00,
2013-03-18 05:05:00,54.9,48.8,29.59,SSE,157,17.0,32.0,80,0.00,,,0.03,0.0,WeatherDisplay:10.37,2013-03-18 04:05:00,
2013-03-18 05:10:00,54.8,48.7,29.60,SSE,152,18.0,35.0,80,0.00,,,0.03,0.0,WeatherDisplay:10.37,2013-03-18 04:10:00,
2013-03-18 05:15:00,55.0,48.9,29.61,SSE,168,22.0,33.0,80,0.00,FEW,,0.03,0.0,WeatherDisplay:10.37,2013-03-18 04:15:00,
2013-03-18 05:20:00,55.1,49.0,29.61,South,171,15.0,39.0,80,0.00,FEW,,0.03,0.0,WeatherDisplay:10.37,2013-03-18 04:20:00,
2013-03-18 05:25:00,54.9,49.2,29.61,South,169,21.0,32.0,81,0.00,FEW,,0.03,0.0,WeatherDisplay:10.37,2013-03-18 04:25:00,
2013-03-18 05:30:00,54.6,49.2,29.61,South,169,20.0,31.0,82,0.00,FEW,,0.03,0.0,WeatherDisplay:10.37,2013-03-18 04:30:00,
2013-03-18 05:35:00,54.0,49.6,29.60,SSE,158,13.0,30.0,85,0.00,FEW,,0.03,0.0,WeatherDisplay:10.37,2013-03-18 04:35:00,
2013-03-18 05:40:00,53.8,49.7,29.60,SSE,160,17.0,32.0,86,0.00,FEW,,0.03,0.0,WeatherDisplay:10.37,2013-03-18 04:40:00,
2013-03-18 05:45:00,53.9,50.1,29.60,SSE,156,15.0,30.0,87,0.00,FEW,,0.03,0.0,WeatherDisplay:10.37,2013-03-18 04:45:00,
2013-03-18 05:50:00,54.0,50.2,29.60,SSE,153,16.0,31.0,87,0.00,FEW,,0.03,0.0,WeatherDisplay:10.37,2013-03-18 04:50:00,
2013-03-18 05:55:00,53.8,50.0,29.59,SE,146,15.0,31.0,87,0.00,FEW,,0.03,0.0,WeatherDisplay:10.37,2013-03-18 04:55:00,
2013-03-18 06:00:00,53.6,50.1,29.60,SSE,150,15.0,27.0,88,0.00,FEW,,0.03,0.0,WeatherDisplay:10.37,2013-03-18 05:00:00,
2013-03-18 06:05:00,53.6,50.1,29.60,SSE,150,14.0,27.0,88,0.00,RA,,0.03,0.0,WeatherDisplay:10.37,2013-03-18 05:05:00,
2013-03-18 06:15:00,53.9,50.4,29.60,SSE,164,15.0,29.0,88,0.00,SCT,,0.03,0.0,WeatherDisplay:10.37,2013-03-18 05:15:00,
2013-03-18 06:20:00,54.2,50.4,29.59,SSE,158,20.0,38.0,87,0.00,SCT,,0.03,0.0,WeatherDisplay:10.37,2013-03-18 05:20:00,
2013-03-18 06:25:00,54.2,50.4,29.59,SSE,159,17.0,35.0,87,0.00,SCT,,0.03,0.0,WeatherDisplay:10.37,2013-03-18 05:25:00,
2013-03-18 06:30:00,54.0,50.5,29.59,SSE,165,17.0,31.0,88,0.00,SCT,,0.03,5.0,WeatherDisplay:10.37,2013-03-18 05:30:00,
2013-03-18 06:35:00,54.1,50.3,29.59,SSE,158,20.0,31.0,87,0.00,-DZ,,0.03,7.0,WeatherDisplay:10.37,2013-03-18 05:35:00,
2013-03-18 06:40:00,54.5,50.4,29.59,SSE,156,16.0,32.0,86,0.00,-DZ,,0.03,11.0,WeatherDisplay:10.37,2013-03-18 05:40:00,
2013-03-18 06:45:00,54.6,50.5,29.59,SSE,147,17.0,36.0,86,0.00,-DZ,,0.03,5.0,WeatherDisplay:10.37,2013-03-18 05:45:00,
2013-03-18 06:50:00,54.8,50.7,29.61,SSE,152,17.0,28.0,86,0.00,-DZ,,0.03,0.0,WeatherDisplay:10.37,2013-03-18 05:50:00,
2013-03-18 06:55:00,54.5,50.3,29.62,SSE,164,16.0,32.0,86,0.00,-DZ,,0.03,5.0,WeatherDisplay:10.37,2013-03-18 05:55:00,
2013-03-18 07:00:00,53.9,50.5,29.62,SSE,163,15.0,31.0,88,0.00,-DZ,,0.03,5.0,WeatherDisplay:10.37,2013-03-18 06:00:00,
2013-03-18 07:05:00,53.8,50.6,29.62,South,171,17.0,28.0,89,0.00,BKN,,0.03,7.0,WeatherDisplay:10.37,2013-03-18 06:05:00,
2013-03-18 07:10:00,53.5,50.3,29.60,SSE,156,16.0,25.0,89,0.01,RA,,0.04,16.0,WeatherDisplay:10.37,2013-03-18 06:10:00,
2013-03-18 07:15:00,53.5,50.6,29.59,SSE,158,18.0,35.0,90,0.00,RA,,0.04,30.0,WeatherDisplay:10.37,2013-03-18 06:15:00,
2013-03-18 07:20:00,53.5,50.7,29.59,SSE,156,16.0,35.0,90,0.00,BKN,,0.04,37.0,WeatherDisplay:10.37,2013-03-18 06:20:00,
2013-03-18 07:25:00,53.6,50.7,29.59,SSE,153,17.0,33.0,90,0.00,BKN,,0.04,44.0,WeatherDisplay:10.37,2013-03-18 06:25:00,
2013-03-18 07:30:00,53.9,50.8,29.59,SSE,151,21.0,33.0,89,0.01,RA,,0.05,46.0,WeatherDisplay:10.37,2013-03-18 06:30:00,
2013-03-18 07:35:00,54.0,50.8,29.59,SSE,156,18.0,33.0,89,0.00,RA,,0.05,54.0,WeatherDisplay:10.37,2013-03-18 06:35:00,
2013-03-18 07:40:00,54.0,50.8,29.60,SSE,156,17.0,33.0,89,0.00,BKN,,0.05,63.0,WeatherDisplay:10.37,2013-03-18 06:40:00,
2013-03-18 07:45:00,54.1,50.9,29.59,SSE,148,21.0,32.0,89,0.00,-RA,,0.05,90.0,WeatherDisplay:10.37,2013-03-18 06:45:00,
2013-03-18 07:50:00,54.1,50.9,29.58,SE,146,20.0,32.0,89,0.00,-RA,,0.05,67.0,WeatherDisplay:10.37,2013-03-18 06:50:00,
2013-03-18 07:55:00,54.2,51.0,29.59,SSE,163,21.0,35.0,89,0.00,-RA,,0.05,88.0,WeatherDisplay:10.37,2013-03-18 06:55:00,
2013-03-18 08:00:00,54.3,51.1,29.58,SSE,151,16.0,31.0,89,0.00,-RA,,0.05,102.0,WeatherDisplay:10.37,2013-03-18 07:00:00,
2013-03-18 08:05:00,54.4,50.9,29.58,SSE,148,16.0,33.0,88,0.00,-RA,,0.05,98.0,WeatherDisplay:10.37,2013-03-18 07:05:00,
2013-03-18 08:10:00,54.5,51.0,29.58,SSE,159,16.0,33.0,88,0.00,-RA,,0.05,77.0,WeatherDisplay:10.37,2013-03-18 07:10:00,
2013-03-18 08:15:00,54.5,51.1,29.58,SSE,159,16.0,28.0,88,0.00,-RA,,0.05,56.0,WeatherDisplay:10.37,2013-03-18 07:15:00,
2013-03-18 08:20:00,54.6,51.1,29.57,SSE,157,15.0,33.0,88,0.00,-RA,,0.05,69.0,WeatherDisplay:10.37,2013-03-18 07:20:00,
2013-03-18 08:25:00,54.6,51.1,29.58,SSE,148,18.0,38.0,88,0.00,-RA,,0.05,118.0,WeatherDisplay:10.37,2013-03-18 07:25:00,
2013-03-18 08:30:00,54.4,51.2,29.57,SSE,152,17.0,30.0,89,0.00,-RA,,0.05,120.0,WeatherDisplay:10.37,2013-03-18 07:30:00,
2013-03-18 08:35:00,54.5,51.3,29.57,SE,139,16.0,30.0,89,0.00,-RA,,0.05,125.0,WeatherDisplay:10.37,2013-03-18 07:35:00,
2013-03-18 08:45:00,54.8,51.6,29.58,SSE,148,13.0,33.0,89,0.00,-RA,,0.05,218.0,WeatherDisplay:10.37,2013-03-18 07:45:00,
2013-03-18 08:50:00,55.0,51.8,29.58,SSE,150,14.0,28.0,89,0.00,-RA,,0.05,162.0,WeatherDisplay:10.37,2013-03-18 07:50:00,
2013-03-18 08:55:00,55.1,51.9,29.58,SSE,155,17.0,29.0,89,0.00,-RA,,0.05,322.0,WeatherDisplay:10.37,2013-03-18 07:55:00,
2013-03-18 09:00:00,55.4,52.2,29.58,South,170,15.0,33.0,89,0.00,-RA,,0.05,246.0,WeatherDisplay:10.37,2013-03-18 08:00:00,
2013-03-18 09:05:00,55.4,51.9,29.56,South,172,16.0,33.0,88,0.00,-RA,,0.05,327.0,WeatherDisplay:10.37,2013-03-18 08:05:00,
2013-03-18 09:10:00,55.6,52.1,29.56,SSE,157,15.0,31.0,88,0.00,-RA,,0.05,236.0,WeatherDisplay:10.37,2013-03-18 08:10:00,
2013-03-18 09:15:00,56.1,52.2,29.55,SSE,153,15.0,31.0,87,0.00,-RA,,0.05,381.0,WeatherDisplay:10.37,2013-03-18 08:15:00,
2013-03-18 09:20:00,56.3,52.2,29.55,SSE,155,20.0,40.0,86,0.00,-RA,,0.05,350.0,WeatherDisplay:10.37,2013-03-18 08:20:00,
2013-03-18 09:30:00,56.4,52.3,29.54,SSE,154,16.0,28.0,86,0.00,-RA,,0.05,373.0,WeatherDisplay:10.37,2013-03-18 08:30:00,
2013-03-18 09:35:00,56.6,52.4,29.54,SSE,151,16.0,37.0,86,0.00,-RA,,0.05,381.0,WeatherDisplay:10.37,2013-03-18 08:35:00,
2013-03-18 09:40:00,57.1,52.7,29.54,SSE,153,16.0,35.0,85,0.00,-RA,,0.05,480.0,WeatherDisplay:10.37,2013-03-18 08:40:00,
2013-03-18 09:45:00,57.4,52.6,29.53,SSE,154,20.0,39.0,84,0.00,-RA,,0.05,371.0,WeatherDisplay:10.37,2013-03-18 08:45:00,
2013-03-18 09:55:00,57.7,52.6,29.53,SSE,150,17.0,40.0,83,0.00,-RA,,0.05,457.0,WeatherDisplay:10.37,2013-03-18 08:55:00,
2013-03-18 10:00:00,57.9,53.1,29.54,SSE,160,18.0,31.0,84,0.00,-RA,,0.05,279.0,WeatherDisplay:10.37,2013-03-18 09:00:00,
2013-03-18 10:05:00,57.6,52.8,29.55,South,170,22.0,31.0,84,0.00,-RA,,0.05,225.0,WeatherDisplay:10.37,2013-03-18 09:05:00,
2013-03-18 10:10:00,57.6,52.8,29.55,SSE,156,15.0,28.0,84,0.00,-RA,,0.05,149.0,WeatherDisplay:10.37,2013-03-18 09:10:00,
2013-03-18 10:15:00,57.5,53.0,29.55,South,169,14.0,26.0,85,0.00,BKN,,0.05,178.0,WeatherDisplay:10.37,2013-03-18 09:15:00,
2013-03-18 10:20:00,57.5,53.0,29.56,SSE,167,16.0,29.0,85,0.00,BKN,,0.05,188.0,WeatherDisplay:10.37,2013-03-18 09:20:00,
2013-03-18 10:25:00,57.5,53.0,29.56,SSE,160,16.0,33.0,85,0.00,BKN,,0.05,169.0,WeatherDisplay:10.37,2013-03-18 09:25:00,
2013-03-18 10:30:00,57.4,52.9,29.57,SSE,156,16.0,35.0,85,0.00,BKN,,0.05,155.0,WeatherDisplay:10.37,2013-03-18 09:30:00,
2013-03-18 10:35:00,57.4,53.2,29.56,South,171,14.0,27.0,86,0.00,BKN,,0.05,148.0,WeatherDisplay:10.37,2013-03-18 09:35:00,
2013-03-18 10:45:00,56.6,53.1,29.56,SSE,163,16.0,33.0,88,0.00,-RA,,0.05,90.0,WeatherDisplay:10.37,2013-03-18 09:45:00,
2013-03-18 10:50:00,56.2,53.0,29.56,SSE,165,21.0,35.0,89,0.00,-RA,,0.05,81.0,WeatherDisplay:10.37,2013-03-18 09:50:00,
2013-03-18 10:55:00,56.0,53.1,29.55,SSE,158,15.0,28.0,90,0.00,-RA,,0.05,81.0,WeatherDisplay:10.37,2013-03-18 09:55:00,
2013-03-18 11:00:00,55.9,53.3,29.55,South,172,16.0,27.0,91,0.00,-RA,,0.05,79.0,WeatherDisplay:10.37,2013-03-18 10:00:00,
2013-03-18 11:05:00,55.9,53.3,29.54,South,178,14.0,35.0,91,0.01,-RA,,0.05,53.0,WeatherDisplay:10.37,2013-03-18 10:05:00,
2013-03-18 11:10:00,55.8,53.2,29.55,South,174,15.0,27.0,91,0.00,-RA,,0.05,44.0,WeatherDisplay:10.37,2013-03-18 10:10:00,
2013-03-18 11:15:00,55.7,53.1,29.55,SSE,163,10.0,26.0,91,0.00,-RA,,0.05,51.0,WeatherDisplay:10.37,2013-03-18 10:15:00,
2013-03-18 11:20:00,55.7,53.1,29.55,SSE,155,12.0,26.0,91,0.01,-RA,,0.06,49.0,WeatherDisplay:10.37,2013-03-18 10:20:00,
2013-03-18 11:25:00,55.7,53.4,29.55,SSE,159,13.0,26.0,92,0.00,-RA,,0.06,70.0,WeatherDisplay:10.37,2013-03-18 10:25:00,
2013-03-18 11:30:00,55.7,53.4,29.55,SSE,163,17.0,26.0,92,0.00,-RA,,0.06,35.0,WeatherDisplay:10.37,2013-03-18 10:30:00,
2013-03-18 11:35:00,55.8,53.5,29.55,SSE,157,16.0,30.0,92,0.00,-RA,,0.06,62.0,WeatherDisplay:10.37,2013-03-18 10:35:00,
2013-03-18 11:40:00,55.7,53.4,29.54,SSE,150,15.0,28.0,92,0.01,-RA,,0.07,86.0,WeatherDisplay:10.37,2013-03-18 10:40:00,
2013-03-18 11:50:00,55.8,53.5,29.53,SSE,152,10.0,24.0,92,0.00,BKN,,0.07,192.0,WeatherDisplay:10.37,2013-03-18 10:50:00,
2013-03-18 11:55:00,55.9,53.6,29.52,SE,145,10.0,24.0,92,0.00,BKN,,0.07,149.0,WeatherDisplay:10.37,2013-03-18 10:55:00,
2013-03-18 12:00:00,56.0,53.7,29.54,SSE,162,15.0,26.0,92,0.00,BKN,,0.07,200.0,WeatherDisplay:10.37,2013-03-18 11:00:00,
2013-03-18 12:05:00,56.1,53.8,29.52,South,175,13.0,26.0,92,0.01,-RA,,0.08,272.0,WeatherDisplay:10.37,2013-03-18 11:05:00,
2013-03-18 12:10:00,56.1,53.8,29.51,South,172,14.0,24.0,92,0.00,-RA,,0.08,232.0,WeatherDisplay:10.37,2013-03-18 11:10:00,
2013-03-18 12:15:00,56.2,53.9,29.52,SSE,161,15.0,27.0,92,0.00,-RA,,0.08,181.0,WeatherDisplay:10.37,2013-03-18 11:15:00,
2013-03-18 12:20:00,56.2,53.9,29.50,SSE,154,12.0,29.0,92,0.00,-RA,,0.08,176.0,WeatherDisplay:10.37,2013-03-18 11:20:00,
2013-03-18 12:25:00,56.1,53.8,29.49,SSE,149,13.0,21.0,92,0.00,-RA,,0.08,271.0,WeatherDisplay:10.37,2013-03-18 11:25:00,
2013-03-18 12:30:00,56.1,53.8,29.48,SE,145,17.0,33.0,92,0.00,-RA,,0.08,308.0,WeatherDisplay:10.37,2013-03-18 11:30:00,
2013-03-18 12:35:00,56.3,54.0,29.49,SE,140,17.0,29.0,92,0.00,-RA,,0.08,257.0,WeatherDisplay:10.37,2013-03-18 11:35:00,
2013-03-18 12:40:00,56.2,53.9,29.48,SSE,152,15.0,31.0,92,0.00,-RA,,0.08,223.0,WeatherDisplay:10.37,2013-03-18 11:40:00,
2013-03-18 12:45:00,56.1,53.8,29.49,SE,146,15.0,30.0,92,0.00,-RA,,0.08,139.0,WeatherDisplay:10.37,2013-03-18 11:45:00,
2013-03-18 12:50:00,55.9,53.6,29.49,SSE,150,16.0,28.0,92,0.01,-RA,,0.09,113.0,WeatherDisplay:10.37,2013-03-18 11:50:00,
2013-03-18 13:00:00,55.7,53.4,29.49,SSE,165,17.0,30.0,92,0.00,-RA,,0.09,63.0,WeatherDisplay:10.37,2013-03-18 12:00:00,
2013-03-18 13:05:00,55.6,53.6,29.50,SSE,165,16.0,32.0,93,0.01,-RA,,0.09,79.0,WeatherDisplay:10.37,2013-03-18 12:05:00,
2013-03-18 13:15:00,55.7,53.7,29.49,SSE,161,16.0,30.0,93,0.00,BKN,,0.09,88.0,WeatherDisplay:10.37,2013-03-18 12:15:00,
2013-03-18 13:20:00,55.7,53.4,29.50,SSE,164,18.0,31.0,92,0.00,BKN,,0.09,65.0,WeatherDisplay:10.37,2013-03-18 12:20:00,
2013-03-18 13:25:00,55.5,53.5,29.49,SSE,165,13.0,30.0,93,0.00,BKN,,0.09,120.0,WeatherDisplay:10.37,2013-03-18 12:25:00,
2013-03-18 13:30:00,55.6,53.6,29.48,SSE,149,17.0,27.0,93,0.01,RA,,0.10,116.0,WeatherDisplay:10.37,2013-03-18 12:30:00,
2013-03-18 13:35:00,55.7,53.7,29.48,SSE,158,18.0,35.0,93,0.00,-RA,,0.10,105.0,WeatherDisplay:10.37,2013-03-18 12:35:00,
2013-03-18 13:40:00,55.7,53.7,29.48,SSE,166,20.0,32.0,93,0.00,-RA,,0.10,121.0,WeatherDisplay:10.37,2013-03-18 12:40:00,
2013-03-18 13:45:00,55.7,53.7,29.49,SSE,166,14.0,32.0,93,0.00,-RA,,0.10,118.0,WeatherDisplay:10.37,2013-03-18 12:45:00,
2013-03-18 13:55:00,55.8,53.8,29.49,SSE,161,18.0,30.0,93,0.00,-RA,,0.10,132.0,WeatherDisplay:10.37,2013-03-18 12:55:00,
2013-03-18 14:00:00,55.7,53.7,29.49,SSE,167,18.0,33.0,93,0.00,-RA,,0.10,62.0,WeatherDisplay:10.37,2013-03-18 13:00:00,
2013-03-18 14:05:00,55.7,53.7,29.50,South,180,12.0,25.0,93,0.00,-RA,,0.10,40.0,WeatherDisplay:10.37,2013-03-18 13:05:00,
2013-03-18 14:10:00,55.7,54.0,29.50,South,179,15.0,26.0,94,0.00,-RA,,0.10,44.0,WeatherDisplay:10.37,2013-03-18 13:10:00,
2013-03-18 14:15:00,55.7,54.0,29.50,SSE,166,17.0,28.0,94,0.00,-RA,,0.10,60.0,WeatherDisplay:10.37,2013-03-18 13:15:00,
2013-03-18 14:20:00,55.6,53.9,29.49,SSE,163,14.0,23.0,94,0.01,-RA,,0.11,35.0,WeatherDisplay:10.37,2013-03-18 13:20:00,
2013-03-18 14:25:00,55.6,53.9,29.49,South,181,12.0,29.0,94,0.00,-RA,,0.11,32.0,WeatherDisplay:10.37,2013-03-18 13:25:00,
2013-03-18 14:30:00,55.6,53.9,29.50,South,179,10.0,25.0,94,0.00,-RA,,0.11,58.0,WeatherDisplay:10.37,2013-03-18 13:30:00,
2013-03-18 14:35:00,55.6,53.9,29.49,South,170,13.0,32.0,94,0.00,OVC,,0.11,35.0,WeatherDisplay:10.37,2013-03-18 13:35:00,
2013-03-18 14:40:00,55.6,53.9,29.49,South,179,14.0,32.0,94,0.00,OVC,,0.11,21.0,WeatherDisplay:10.37,2013-03-18 13:40:00,
2013-03-18 14:45:00,55.7,54.0,29.49,SSE,165,14.0,25.0,94,0.00,OVC,,0.11,44.0,WeatherDisplay:10.37,2013-03-18 13:45:00,
2013-03-18 14:50:00,55.8,54.1,29.49,SSE,156,14.0,25.0,94,0.00,OVC,,0.11,35.0,WeatherDisplay:10.37,2013-03-18 13:50:00,
2013-03-18 14:55:00,55.9,54.2,29.49,SSE,159,12.0,22.0,94,0.00,OVC,,0.11,39.0,WeatherDisplay:10.37,2013-03-18 13:55:00,
2013-03-18 15:00:00,55.9,53.9,29.49,South,174,13.0,23.0,93,0.00,OVC,,0.11,30.0,WeatherDisplay:10.37,2013-03-18 14:00:00,
2013-03-18 15:05:00,56.0,54.0,29.49,South,175,13.0,20.0,93,0.00,OVC,,0.11,26.0,WeatherDisplay:10.37,2013-03-18 14:05:00,
2013-03-18 15:10:00,56.0,54.0,29.49,South,169,13.0,21.0,93,0.01,RA,,0.12,21.0,WeatherDisplay:10.37,2013-03-18 14:10:00,
2013-03-18 15:15:00,56.1,54.1,29.49,SSE,163,13.0,26.0,93,0.00,-RA,,0.12,35.0,WeatherDisplay:10.37,2013-03-18 14:15:00,
2013-03-18 15:20:00,56.1,54.1,29.49,SSE,165,9.0,20.0,93,0.00,-RA,,0.12,67.0,WeatherDisplay:10.37,2013-03-18 14:20:00,
2013-03-18 15:25:00,56.2,54.2,29.50,SSE,159,12.0,21.0,93,0.00,-RA,,0.12,40.0,WeatherDisplay:10.37,2013-03-18 14:25:00,
2013-03-18 15:30:00,56.3,54.3,29.49,SSE,166,7.0,16.0,93,0.00,-RA,,0.12,91.0,WeatherDisplay:10.37,2013-03-18 14:30:00,
2013-03-18 15:35:00,56.4,54.4,29.49,South,184,5.0,14.0,93,0.00,-RA,,0.12,60.0,WeatherDisplay:10.37,2013-03-18 14:35:00,
2013-03-18 15:40:00,56.4,54.4,29.49,South,180,12.0,17.0,93,0.00,-RA,,0.12,53.0,WeatherDisplay:10.37,2013-03-18 14:40:00,
2013-03-18 15:45:00,56.6,54.6,29.49,SSE,155,13.0,22.0,93,0.00,-RA,,0.12,146.0,WeatherDisplay:10.37,2013-03-18 14:45:00,
2013-03-18 15:50:00,56.8,54.8,29.49,SSE,161,9.0,18.0,93,0.00,-RA,,0.12,53.0,WeatherDisplay:10.37,2013-03-18 14:50:00,
2013-03-18 15:55:00,57.0,55.0,29.49,SSE,168,7.0,14.0,93,0.00,-RA,,0.12,44.0,WeatherDisplay:10.37,2013-03-18 14:55:00,
2013-03-18 16:00:00,57.0,54.7,29.49,South,175,5.0,16.0,92,0.00,-RA,,0.12,26.0,WeatherDisplay:10.37,2013-03-18 15:00:00,
2013-03-18 16:05:00,57.0,54.7,29.50,South,171,8.0,16.0,92,0.00,-RA,,0.12,32.0,WeatherDisplay:10.37,2013-03-18 15:05:00,
2013-03-18 16:10:00,57.0,54.7,29.50,SSE,166,9.0,15.0,92,0.00,-RA,,0.12,28.0,WeatherDisplay:10.37,2013-03-18 15:10:00,
2013-03-18 16:15:00,57.1,54.8,29.50,South,172,9.0,17.0,92,0.00,BKN,,0.12,18.0,WeatherDisplay:10.37,2013-03-18 15:15:00,
2013-03-18 16:20:00,57.3,55.2,29.50,South,180,8.0,17.0,93,0.00,BKN,,0.12,60.0,WeatherDisplay:10.37,2013-03-18 15:20:00,
2013-03-18 16:25:00,57.5,55.2,29.50,South,186,13.0,20.0,92,0.00,BKN,,0.12,72.0,WeatherDisplay:10.37,2013-03-18 15:25:00,
2013-03-18 16:30:00,57.8,55.5,29.50,SSW,197,9.0,17.0,92,0.00,BKN,,0.12,158.0,WeatherDisplay:10.37,2013-03-18 15:30:00,
2013-03-18 16:35:00,57.8,55.5,29.50,SSW,198,7.0,15.0,92,0.00,BKN,,0.12,104.0,WeatherDisplay:10.37,2013-03-18 15:35:00,
2013-03-18 16:40:00,57.8,55.2,29.50,SSW,194,5.0,13.0,91,0.00,BKN,,0.12,100.0,WeatherDisplay:10.37,2013-03-18 15:40:00,
2013-03-18 16:45:00,57.7,55.1,29.51,SSW,202,8.0,12.0,91,0.00,BKN,,0.12,74.0,WeatherDisplay:10.37,2013-03-18 15:45:00,
2013-03-18 16:50:00,57.4,54.8,29.51,SW,223,10.0,20.0,91,0.00,BKN,,0.12,67.0,WeatherDisplay:10.37,2013-03-18 15:50:00,
2013-03-18 16:55:00,57.3,53.4,29.51,WSW,241,9.0,21.0,87,0.00,BKN,,0.12,63.0,WeatherDisplay:10.37,2013-03-18 15:55:00,
2013-03-18 17:00:00,57.2,52.7,29.51,WSW,242,7.0,18.0,85,0.00,BKN,,0.12,98.0,WeatherDisplay:10.37,2013-03-18 16:00:00,
2013-03-18 17:05:00,57.2,52.1,29.51,WSW,242,9.0,18.0,83,0.00,BKN,,0.12,292.0,WeatherDisplay:10.37,2013-03-18 16:05:00,
2013-03-18 17:10:00,57.3,52.2,29.51,WSW,244,13.0,20.0,83,0.00,BKN,,0.12,193.0,WeatherDisplay:10.37,2013-03-18 16:10:00,
2013-03-18 17:15:00,57.2,51.8,29.51,SW,229,6.0,16.0,82,0.00,FEW,,0.12,172.0,WeatherDisplay:10.37,2013-03-18 16:15:00,
2013-03-18 17:20:00,57.1,51.6,29.51,SW,220,10.0,16.0,82,0.00,FEW,,0.12,127.0,WeatherDisplay:10.37,2013-03-18 16:20:00,
2013-03-18 17:25:00,57.1,51.3,29.52,SW,227,6.0,22.0,81,0.00,FEW,,0.12,121.0,WeatherDisplay:10.37,2013-03-18 16:25:00,
2013-03-18 17:30:00,56.9,51.1,29.52,SW,231,9.0,22.0,81,0.00,FEW,,0.12,95.0,WeatherDisplay:10.37,2013-03-18 16:30:00,
2013-03-18 17:35:00,56.8,50.7,29.52,WSW,241,12.0,21.0,80,0.00,FEW,,0.12,70.0,WeatherDisplay:10.37,2013-03-18 16:35:00,
2013-03-18 17:40:00,56.8,50.4,29.52,WSW,242,12.0,24.0,79,0.00,FEW,,0.12,60.0,WeatherDisplay:10.37,2013-03-18 16:40:00,
2013-03-18 17:45:00,56.8,50.0,29.52,WSW,237,14.0,22.0,78,0.00,OVC,,0.12,60.0,WeatherDisplay:10.37,2013-03-18 16:45:00,
2013-03-18 17:50:00,56.7,49.6,29.53,WSW,240,9.0,21.0,77,0.00,OVC,,0.12,44.0,WeatherDisplay:10.37,2013-03-18 16:50:00,
2013-03-18 17:55:00,56.3,49.2,29.53,SW,234,6.0,16.0,77,0.00,OVC,,0.12,37.0,WeatherDisplay:10.37,2013-03-18 16:55:00,
2013-03-18 18:00:00,56.3,48.8,29.53,SW,225,7.0,18.0,76,0.00,OVC,,0.12,28.0,WeatherDisplay:10.37,2013-03-18 17:00:00,
2013-03-18 18:05:00,56.2,48.7,29.54,SW,220,5.0,12.0,76,0.00,OVC,,0.12,19.0,WeatherDisplay:10.37,2013-03-18 17:05:00,
2013-03-18 18:10:00,56.0,48.2,29.53,SW,223,8.0,16.0,75,0.00,OVC,,0.12,14.0,WeatherDisplay:10.37,2013-03-18 17:10:00,
2013-03-18 18:15:00,56.3,47.0,29.54,WSW,246,15.0,22.0,71,0.00,OVC,,0.12,9.0,WeatherDisplay:10.37,2013-03-18 17:15:00,
2013-03-18 18:20:00,56.6,45.8,29.54,WSW,249,15.0,29.0,67,0.00,OVC,,0.12,5.0,WeatherDisplay:10.37,2013-03-18 17:20:00,
2013-03-18 18:25:00,56.6,46.1,29.54,WSW,244,12.0,30.0,68,0.00,OVC,,0.12,0.0,WeatherDisplay:10.37,2013-03-18 17:25:00,
2013-03-18 18:30:00,56.3,46.3,29.55,WSW,251,10.0,26.0,69,0.00,OVC,,0.12,0.0,WeatherDisplay:10.37,2013-03-18 17:30:00,
2013-03-18 18:35:00,56.3,46.6,29.55,WSW,248,14.0,23.0,70,0.00,OVC,,0.12,0.0,WeatherDisplay:10.37,2013-03-18 17:35:00,
2013-03-18 18:40:00,56.1,46.8,29.55,WSW,238,12.0,24.0,71,0.00,OVC,,0.12,0.0,WeatherDisplay:10.37,2013-03-18 17:40:00,
2013-03-18 18:45:00,55.8,47.3,29.55,SW,226,7.0,26.0,73,0.00,OVC,,0.12,0.0,WeatherDisplay:10.37,2013-03-18 17:45:00,
2013-03-18 18:50:00,55.5,47.7,29.55,SW,222,7.0,18.0,75,0.00,OVC,,0.12,0.0,WeatherDisplay:10.37,2013-03-18 17:50:00,
2013-03-18 18:55:00,55.5,47.3,29.55,SW,227,18.0,28.0,74,0.00,,,0.12,0.0,WeatherDisplay:10.37,2013-03-18 17:55:00,
2013-03-18 19:00:00,55.7,47.5,29.56,WSW,241,14.0,26.0,74,0.00,,,0.12,0.0,WeatherDisplay:10.37,2013-03-18 18:00:00,
2013-03-18 19:05:00,55.7,47.5,29.56,WSW,243,16.0,32.0,74,0.00,,,0.12,0.0,WeatherDisplay:10.37,2013-03-18 18:05:00,
2013-03-18 19:10:00,55.6,47.4,29.56,WSW,241,14.0,25.0,74,0.00,,,0.12,0.0,WeatherDisplay:10.37,2013-03-18 18:10:00,
2013-03-18 19:15:00,55.4,47.6,29.56,WSW,247,10.0,24.0,75,0.00,,,0.12,0.0,WeatherDisplay:10.37,2013-03-18 18:15:00,
2013-03-18 19:20:00,55.3,47.5,29.57,WSW,254,7.0,22.0,75,0.00,,,0.12,0.0,WeatherDisplay:10.37,2013-03-18 18:20:00,
2013-03-18 19:25:00,55.2,47.4,29.57,WSW,255,16.0,26.0,75,0.00,,,0.12,0.0,WeatherDisplay:10.37,2013-03-18 18:25:00,
2013-03-18 19:30:00,55.2,47.1,29.57,WSW,251,13.0,27.0,74,0.00,,,0.12,0.0,WeatherDisplay:10.37,2013-03-18 18:30:00,
2013-03-18 19:35:00,55.3,47.1,29.58,WSW,258,16.0,26.0,74,0.00,,,0.12,0.0,WeatherDisplay:10.37,2013-03-18 18:35:00,
2013-03-18 19:40:00,55.1,47.3,29.58,WSW,257,13.0,22.0,75,0.00,,,0.12,0.0,WeatherDisplay:10.37,2013-03-18 18:40:00,
2013-03-18 19:45:00,55.0,47.2,29.58,WSW,252,14.0,25.0,75,0.00,,,0.12,0.0,WeatherDisplay:10.37,2013-03-18 18:45:00,
2013-03-18 19:50:00,55.0,46.9,29.59,West,260,13.0,27.0,74,0.00,,,0.12,0.0,WeatherDisplay:10.37,2013-03-18 18:50:00,
2013-03-18 19:55:00,54.9,46.8,29.59,West,261,13.0,35.0,74,0.00,,,0.12,0.0,WeatherDisplay:10.37,2013-03-18 18:55:00,
2013-03-18 20:00:00,55.0,46.5,29.59,WSW,257,13.0,35.0,73,0.00,,,0.12,0.0,WeatherDisplay:10.37,2013-03-18 19:00:00,
2013-03-18 20:05:00,54.8,46.3,29.59,West,263,12.0,25.0,73,0.00,,,0.12,0.0,WeatherDisplay:10.37,2013-03-18 19:05:00,
2013-03-18 20:10:00,54.7,46.2,29.60,West,263,13.0,24.0,73,0.00,,,0.12,0.0,WeatherDisplay:10.37,2013-03-18 19:10:00,
2013-03-18 20:15:00,54.7,46.5,29.60,WSW,251,9.0,18.0,74,0.00,,,0.12,0.0,WeatherDisplay:10.37,2013-03-18 19:15:00,
2013-03-18 20:20:00,54.6,46.5,29.60,WSW,250,8.0,23.0,74,0.00,,,0.12,0.0,WeatherDisplay:10.37,2013-03-18 19:20:00,
2013-03-18 20:25:00,54.5,46.4,29.61,WSW,246,8.0,17.0,74,0.00,,,0.12,0.0,WeatherDisplay:10.37,2013-03-18 19:25:00,
2013-03-18 20:30:00,54.3,46.5,29.61,WSW,241,8.0,17.0,75,0.00,,,0.12,0.0,WeatherDisplay:10.37,2013-03-18 19:30:00,
2013-03-18 20:35:00,54.4,46.6,29.61,WSW,238,9.0,20.0,75,0.00,,,0.12,0.0,WeatherDisplay:10.37,2013-03-18 19:35:00,
2013-03-18 20:40:00,54.4,46.3,29.60,SW,234,8.0,18.0,74,0.00,,,0.12,0.0,WeatherDisplay:10.37,2013-03-18 19:40:00,
2013-03-18 20:45:00,54.3,46.5,29.60,SW,228,7.0,17.0,75,0.00,,,0.12,0.0,WeatherDisplay:10.37,2013-03-18 19:45:00,
2013-03-18 20:50:00,54.1,46.3,29.60,SW,217,6.0,13.0,75,0.00,,,0.12,0.0,WeatherDisplay:10.37,2013-03-18 19:50:00,
2013-03-18 20:55:00,54.1,46.3,29.61,SW,223,5.0,9.0,75,0.00,,,0.12,0.0,WeatherDisplay:10.37,2013-03-18 19:55:00,
2013-03-18 21:00:00,54.0,46.6,29.61,WSW,241,5.0,9.0,76,0.00,,,0.12,0.0,WeatherDisplay:10.37,2013-03-18 20:00:00,
2013-03-18 21:05:00,53.9,46.5,29.61,WSW,242,7.0,12.0,76,0.00,,,0.12,0.0,WeatherDisplay:10.37,2013-03-18 20:05:00,
2013-03-18 21:10:00,53.9,46.5,29.61,SW,234,2.0,12.0,76,0.00,,,0.12,0.0,WeatherDisplay:10.37,2013-03-18 20:10:00,
2013-03-18 21:15:00,53.8,46.4,29.61,SW,232,5.0,12.0,76,0.00,,,0.12,0.0,WeatherDisplay:10.37,2013-03-18 20:15:00,
2013-03-18 21:20:00,53.8,46.0,29.62,WSW,253,5.0,16.0,75,0.00,,,0.12,0.0,WeatherDisplay:10.37,2013-03-18 20:20:00,
2013-03-18 21:25:00,53.7,46.0,29.62,West,266,8.0,16.0,75,0.00,,,0.12,0.0,WeatherDisplay:10.37,2013-03-18 20:25:00,
2013-03-18 21:30:00,53.8,46.1,29.62,West,265,6.0,14.0,75,0.00,,,0.12,0.0,WeatherDisplay:10.37,2013-03-18 20:30:00,
2013-03-18 21:35:00,53.8,46.1,29.62,WSW,257,8.0,12.0,75,0.00,,,0.12,0.0,WeatherDisplay:10.37,2013-03-18 20:35:00,
2013-03-18 21:45:00,53.8,46.1,29.62,West,270,7.0,15.0,75,0.00,,,0.12,0.0,WeatherDisplay:10.37,2013-03-18 20:45:00,
2013-03-18 21:50:00,53.7,45.6,29.62,West,259,7.0,10.0,74,0.00,,,0.12,0.0,WeatherDisplay:10.37,2013-03-18 20:50:00,
2013-03-18 21:55:00,53.7,45.6,29.62,WSW,252,9.0,13.0,74,0.00,,,0.12,0.0,WeatherDisplay:10.37,2013-03-18 20:55:00,
2013-03-18 22:00:00,53.7,45.6,29.62,WSW,244,5.0,12.0,74,0.00,,,0.12,0.0,WeatherDisplay:10.37,2013-03-18 21:00:00,
2013-03-18 22:05:00,53.6,45.9,29.62,WSW,243,7.0,12.0,75,0.00,,,0.12,0.0,WeatherDisplay:10.37,2013-03-18 21:05:00,
2013-03-18 22:10:00,53.5,45.8,29.62,West,259,7.0,13.0,75,0.00,,,0.12,0.0,WeatherDisplay:10.37,2013-03-18 21:10:00,
2013-03-18 22:20:00,53.7,45.6,29.62,WSW,251,10.0,16.0,74,0.00,,,0.12,0.0,WeatherDisplay:10.37,2013-03-18 21:20:00,
2013-03-18 22:25:00,53.7,45.6,29.62,WSW,243,8.0,16.0,74,0.00,,,0.12,0.0,WeatherDisplay:10.37,2013-03-18 21:25:00,
2013-03-18 22:30:00,53.7,45.6,29.62,WSW,241,8.0,16.0,74,0.00,,,0.12,0.0,WeatherDisplay:10.37,2013-03-18 21:30:00,
2013-03-18 22:40:00,53.6,45.5,29.63,WSW,253,7.0,13.0,74,0.00,,,0.12,0.0,WeatherDisplay:10.37,2013-03-18 21:40:00,
2013-03-18 22:45:00,53.4,45.7,29.63,WSW,253,5.0,12.0,75,0.00,,,0.12,0.0,WeatherDisplay:10.37,2013-03-18 21:45:00,
2013-03-18 22:50:00,53.4,45.7,29.64,West,260,7.0,14.0,75,0.00,,,0.12,0.0,WeatherDisplay:10.37,2013-03-18 21:50:00,
2013-03-18 22:55:00,53.5,45.8,29.64,West,264,10.0,18.0,75,0.00,,,0.12,0.0,WeatherDisplay:10.37,2013-03-18 21:55:00,
2013-03-18 23:00:00,53.5,45.8,29.64,West,261,7.0,16.0,75,0.00,,,0.12,0.0,WeatherDisplay:10.37,2013-03-18 22:00:00,
2013-03-18 23:05:00,53.6,45.9,29.64,WSW,257,7.0,17.0,75,0.00,,,0.12,0.0,WeatherDisplay:10.37,2013-03-18 22:05:00,
2013-03-18 23:15:00,53.7,46.0,29.64,WSW,246,6.0,20.0,75,0.00,,,0.12,0.0,WeatherDisplay:10.37,2013-03-18 22:15:00,
2013-03-18 23:20:00,53.7,46.0,29.64,WSW,256,10.0,16.0,75,0.00,,,0.12,0.0,WeatherDisplay:10.37,2013-03-18 22:20:00,
2013-03-18 23:25:00,53.6,46.2,29.64,West,264,9.0,15.0,76,0.00,,,0.12,0.0,WeatherDisplay:10.37,2013-03-18 22:25:00,
2013-03-18 23:30:00,53.7,46.0,29.65,West,259,8.0,17.0,75,0.00,,,0.12,0.0,WeatherDisplay:10.37,2013-03-18 22:30:00,
2013-03-18 23:35:00,53.8,45.7,29.65,WSW,257,8.0,15.0,74,0.00,,,0.12,0.0,WeatherDisplay:10.37,2013-03-18 22:35:00,
2013-03-18 23:40:00,53.7,45.6,29.65,WSW,248,3.0,14.0,74,0.00,,,0.12,0.0,WeatherDisplay:10.37,2013-03-18 22:40:00,
2013-03-18 23:45:00,53.6,45.9,29.64,WSW,246,9.0,17.0,75,0.00,,,0.12,0.0,WeatherDisplay:10.37,2013-03-18 22:45:00,
2013-03-18 23:50:00,53.5,45.8,29.65,WSW,249,10.0,17.0,75,0.00,,,0.12,0.0,WeatherDisplay:10.37,2013-03-18 22:50:00,
2013-03-18 23:55:00,53.5,45.8,29.64,WSW,254,8.0,16.0,75,0.00,,,0.12,0.0,WeatherDisplay:10.37,2013-03-18 22:55:00,